Tracking 29528 objects as of 13-Sep-2024
HD Live streaming from Space Station
objects crossing your sky now

THORAD AGENA D DEB

Track THORAD AGENA D DEB now!
10-day predictions


NORAD ID: 4971
Int'l Code: 1970-025GR
Perigee: 1,068.7 km
Apogee: 1,593.9 km
Inclination: 99.9 °
Period: 112.1 minutes
Semi major axis: 7702 km
RCS: 0.0605 m2 (small)
Launch date: April 8, 1970
Source: United States (US)
Launch site: AIR FORCE WESTERN TEST RANGE (AFWTR)

Note: This is SATELLITE DEBRIS
Your satellite tracking list
Your tracking list is empty




NASA's NSSDC Master Catalog

Two Line Element Set (TLE):
1 04971U 70025GR  24256.63446524  .00000593  00000-0  20273-2 0  9991
2 04971  99.8673 241.6645 0340936 162.4517 263.9130 12.84325383545180
Source of the keplerian elements: AFSPC